Location: Unspecified
(43.1383°N, 0.0000°E)
Time: 06:40:52
(UTC+00:00)

CZ-6A DEB - Visible Passes

Search period start: 04 April 2026 00:00
Search period end: 14 April 2026 00:00
Orbit: 651 x 794 km, 89.0° (Epoch: 28 March)

Date Brightness Start Highest point End Pass type
(mag) Time Alt. Az. Time Alt. Az. Time Alt. Az.
4 Apr ? 04:46:57 10° SE 04:50:57 23° ENE 04:54:50 10° NNE visible
6 Apr ? 04:46:35 10° SE 04:50:50 27° E 04:54:59 10° NNE visible
7 Apr ? 04:01:10 10° ENE 04:01:44 10° ENE 04:02:17 10° ENE visible
8 Apr ? 04:46:16 10° SE 04:50:45 32° E 04:55:05 10° NNE visible
9 Apr ? 03:59:32 10° E 04:01:33 12° ENE 04:03:33 10° NE visible
10 Apr ? 04:46:00 10° SSE 04:50:38 39° E 04:55:09 10° NNE visible
11 Apr ? 03:58:40 10° ESE 04:01:24 15° ENE 04:04:04 10° NE visible
12 Apr ? 04:45:47 10° SSE 04:50:33 47° E 04:55:10 10° NNE visible
13 Apr ? 03:58:01 10° ESE 04:01:14 18° ENE 04:04:24 10° NE visible
